Flag for Canada Weather past 2 weeks in Clarington, Ontario, Canada

Now
30 °F

Sunny.


Feels Like: 23 °F
Forecast: 30 / 44 °F
Wind: 8 mph from Southeast

Location: Peterborough Airport


UV Index: 5 (Moderate)

Visibility: 9 mi


Pressure: 30.64 "Hg

Humidity: 80%

Dew point: 25 °F

Location of ClaringtonLocation

Historic Weather in Clarington

°F

Clarington temperature yesterday

Maximum temperature yesterday: 36 °F (at 5:00 PM)
Minimum temperature yesterday: 19 °F (at 5:00 AM)
Average temperature yesterday: 26 °F

Past Weeks' High & Low Weather Summary

 TemperatureHumidityPressure
High70 °F (Apr 14, 10:50 AM)100% (Apr 4, 2:03 PM)30.64 "Hg (Apr 4, 2:03 PM)
Low19 °F (Apr 16, 5:00 AM)28% (Apr 11, 6:00 PM)29.34 "Hg (Apr 8, 10:00 AM)
Average39 °F76%29.94 "Hg
* Reported Apr 2 8:00 AM — Apr 17 8:00 AM, Clarington, Weather by CustomWeather, © 2014

Note: Actual official high and low records may vary slightly from our data, if they occured in-between our weather recording intervals... More about our weather records

Advertising

Historic Weather Conditions — Data for Previous 24 hours

 ConditionsComfort  
Time TempWeatherWind HumidityBarometerVisibility
8:00 AM
Apr 17
30 °FSunny.8 mph80%30.64 "Hg9 mi
7:00 AM27 °FClear.6 mph86%30.63 "Hg9 mi
6:00 AM27 °FClear.3 mph86%30.62 "Hg9 mi
5:00 AM27 °FPassing clouds.3 mph86%30.61 "Hg9 mi
4:00 AM27 °FPassing clouds.3 mph86%30.60 "Hg9 mi
3:00 AM27 °FClear.5 mph86%30.60 "Hg9 mi
2:00 AM27 °FClear.2 mph93%30.60 "Hg9 mi
1:00 AM27 °FClear.No wind93%30.59 "Hg9 mi
12:00 AM27 °FClear.No wind86%30.59 "Hg9 mi
11:00 PM
Apr 16
28 °FClear.No wind80%30.58 "Hg9 mi
10:00 PM28 °FClear.2 mph80%30.58 "Hg9 mi
9:00 PM30 °FClear.3 mph75%30.56 "Hg9 mi
8:00 PM32 °FPassing clouds.6 mph69%30.53 "Hg9 mi
7:00 PM34 °FScattered clouds.9 mph65%30.52 "Hg9 mi
6:00 PM36 °FPartly sunny.8 mph56%30.51 "Hg9 mi
5:00 PM36 °FPartly sunny.5 mph52%30.51 "Hg9 mi
4:00 PM34 °FPartly sunny.7 mph48%30.50 "Hg9 mi
3:00 PM32 °FPartly sunny.8 mph55%30.51 "Hg9 mi
2:00 PM30 °FOvercast.12 mph59%30.52 "Hg9 mi
1:00 PM30 °FLight snow. Mostly cloudy.9 mph69%30.51 "Hg9 mi
12:00 PM28 °FPartly sunny.10 mph64%30.50 "Hg9 mi
11:00 AM27 °FPassing clouds.8 mph64%30.49 "Hg9 mi
10:00 AM25 °FPassing clouds.8 mph63%30.47 "Hg9 mi
9:00 AM23 °FSunny.3 mph63%30.45 "Hg9 mi
Weather by CustomWeather, © 2014

See weather overview